EW5822 Weather Reports


Display with metric or nautical units.
time (UTC)temp
F
wind
direction
speed
MPH
gust
MPH
rain 1hr
in
rain 24hr
in
rain mn
in
humidity
%
barometer
mb
20260510071113 59 7 11.0 14.0 0.00 0.00 0.00 67 1015.0
20260510070215 59 7 12.0 14.0 0.00 0.00 0.00 68 1015.0
20260510065617 59 359 12.0 14.0 0.00 0.00 0.00 69 1015.1
20260510064504 58 352 10.0 12.0 0.00 0.00 0.00 70 1015.0
20260510063816 58 342 9.0 11.0 0.00 0.00 0.00 71 1015.1
20260510062703 59 351 9.0 12.0 0.00 0.00 0.00 69 1015.0
20260510061803 60 357 9.0 12.0 0.00 0.00 0.00 68 1014.8
20260510060903 60 332 9.0 12.0 0.00 0.00 0.00 66 1014.9
20260510060216 60 332 9.0 11.0 0.00 0.00 0.00 67 1015.2
20260510055612 59 332 7.0 10.0 0.00 0.00 0.00 68 1015.1
20260510054715 60 18 6.0 9.0 0.00 0.00 0.00 65 1014.8
20260510053603 62 24 5.0 9.0 0.00 0.00 0.00 62 1014.5
20260510052914 62 24 2.0 5.0 0.00 0.00 0.00 60 1014.5
20260510052017 62 21 5.0 11.0 0.00 0.00 0.00 61 1014.4
20260510050903 62 22 10.0 12.0 0.00 0.00 0.00 60 1014.0
20260510050003 63 29 9.0 11.0 0.00 0.00 0.00 59 1013.9
20260510045403 63 25 9.0 11.0 0.00 0.00 0.00 59 1013.9
20260510044503 63 15 9.0 12.0 0.00 0.00 0.00 59 1014.0
20260510043813 63 18 10.0 13.0 0.00 0.00 0.00 59 1014.0
20260510042704 63 18 11.0 13.0 0.00 0.00 0.00 59 1013.6
20260510042012 63 13 10.0 14.0 0.00 0.00 0.00 59 1013.7
20260510041115 62 16 7.0 11.0 0.00 0.00 0.00 62 1013.6
20260510040217 62 19 7.0 9.0 0.00 0.00 0.00 62 1013.3
20260510035403 63 26 7.0 10.0 0.00 0.00 0.00 60 1013.0
20260510034503 63 3 6.0 10.0 0.00 0.00 0.00 60 1012.8
20260510033603 63 340 8.0 11.0 0.00 0.00 0.00 62 1012.8
20260510032703 62 360 10.0 13.0 0.00 0.00 0.00 64 1012.5
20260510031803 62 1 11.0 13.0 0.00 0.00 0.00 66 1012.2
20260510030903 63 11 11.0 13.0 0.00 0.00 0.00 65 1011.9
20260510030213 62 6 10.0 13.0 0.00 0.00 0.00 65 1011.8
20260510025614 62 355 10.0 11.0 0.00 0.00 0.00 66 1011.9
20260510024503 62 334 8.0 10.0 0.00 0.00 0.00 65 1011.5
20260510023603 64 345 6.0 8.0 0.00 0.00 0.00 62 1011.3
20260510022916 65 357 4.0 6.0 0.00 0.00 0.00 57 1011.2
20260510022014 65 346 6.0 10.0 0.00 0.00 0.00 56 1010.8
20260510021116 66 347 4.0 9.0 0.00 0.00 0.00 52 1010.8
20260510020213 66 330 4.0 6.0 0.00 0.00 0.00 53 1010.8
20260510015403 65 327 4.0 8.0 0.00 0.00 0.00 52 1010.5
20260510014717 65 326 5.0 8.0 0.00 0.00 0.00 51 1010.4
20260510013815 67 323 4.0 6.0 0.00 0.00 0.00 49 1010.1
20260510012703 68 324 4.0 6.0 0.00 0.00 0.00 48 1009.9
20260510012014 69 346 6.0 9.0 0.00 0.00 0.00 47 1009.8
20260510011117 70 11 7.0 9.0 0.00 0.00 0.00 45 1009.4
20260510010214 70 18 8.0 10.0 0.00 0.00 0.00 44 1009.2
20260510005403 71 19 9.0 13.0 0.00 0.00 0.00 44 1009.0
20260510004503 72 25 11.0 15.0 0.00 0.00 0.00 42 1008.7
20260510003815 72 29 13.0 17.0 0.00 0.00 0.00 41 1008.6
20260510002912 72 30 13.0 16.0 0.00 0.00 0.00 40 1008.5
20260510002015 73 28 16.0 20.0 0.00 0.00 0.00 39 1008.3
20260510000903 74 26 15.0 20.0 0.00 0.00 0.00 38 1008.3
20260510000004 74 18 18.0 25.0 0.00 0.00 0.00 37 1008.3
20260509235403 74 19 19.0 25.0 0.00 0.00 0.00 37 1008.3
20260509234713 75 20 22.0 29.0 0.00 0.00 0.00 37 1008.2
20260509233603 75 16 23.0 28.0 0.00 0.00 0.00 37 1007.9
20260509232703 76 16 25.0 32.0 0.00 0.00 0.00 35 1007.7
20260509232015 76 14 22.0 31.0 0.00 0.00 0.00 36 1007.7
20260509230903 77 5 24.0 31.0 0.00 0.00 0.00 35 1007.6
20260509230003 79 3 24.0 32.0 0.00 0.00 0.00 33 1007.7
20260509225617 79 356 25.0 32.0 0.00 0.00 0.00 33 1007.7
20260509224714 80 348 23.0 29.0 0.00 0.00 0.00 34 1007.7
20260509223816 78 1 23.0 29.0 0.00 0.00 0.00 37 1007.7
20260509222703 77 347 23.0 30.0 0.00 0.00 0.00 37 1007.6
20260509222016 77 343 25.0 34.0 0.00 0.00 0.00 37 1007.6
20260509220903 80 340 24.0 31.0 0.00 0.00 0.00 36 1007.4
20260509220216 81 342 24.0 33.0 0.00 0.00 0.00 34 1007.4
20260509215403 82 328 22.0 29.0 0.00 0.00 0.00 31 1007.3
20260509214503 80 331 22.0 28.0 0.00 0.00 0.00 34 1007.2
20260509213603 82 332 22.0 30.0 0.00 0.00 0.00 34 1007.2
20260509212703 83 316 22.0 29.0 0.00 0.00 0.00 32 1007.2
20260509212017 83 314 22.0 29.0 0.00 0.00 0.00 31 1007.2
20260509211114 84 305 19.0 26.0 0.00 0.00 0.00 30 1007.3
20260509210004 82 303 18.0 25.0 0.00 0.00 0.00 31 1007.5
20260509205403 81 298 14.0 22.0 0.00 0.00 0.00 34 1007.6
20260509204503 80 292 11.0 16.0 0.00 0.00 0.00 33 1007.6
20260509203813 80 287 13.0 20.0 0.00 0.00 0.00 33 1007.6
20260509202915 82 256 9.0 18.0 0.00 0.00 0.00 33 1007.6
20260509201803 80 243 7.0 15.0 0.00 0.00 0.00 35 1007.6
20260509201115 79 233 8.0 13.0 0.00 0.00 0.00 38 1007.7
20260509200003 79 242 7.0 15.0 0.00 0.00 0.00 39 1007.8
20260509195403 79 247 7.0 14.0 0.00 0.00 0.00 40 1007.9
20260509194716 78 245 8.0 14.0 0.00 0.00 0.00 39 1007.9
20260509193603 76 232 9.0 19.0 0.00 0.00 0.00 39 1008.0
20260509192703 76 237 9.0 17.0 0.00 0.00 0.00 39 1008.0
20260509192013 77 239 9.0 18.0 0.00 0.00 0.00 39 1008.0
20260509190903 78 245 9.0 16.0 0.00 0.00 0.00 39 1008.0
20260509190213 78 241 8.0 14.0 0.00 0.00 0.00 40 1008.1
20260509185403 78 237 9.0 18.0 0.00 0.00 0.00 39 1008.0
20260509184717 78 237 10.0 18.0 0.00 0.00 0.00 39 1008.2
20260509183603 80 225 10.0 18.0 0.00 0.00 0.00 39 1008.2
20260509182916 80 218 9.0 17.0 0.00 0.00 0.00 39 1008.3
20260509181803 79 235 7.0 14.0 0.00 0.00 0.00 40 1008.2
20260509181116 78 218 8.0 14.0 0.00 0.00 0.00 40 1008.2
20260509180213 78 210 10.0 16.0 0.00 0.00 0.00 40 1008.1
20260509175403 78 207 10.0 19.0 0.00 0.00 0.00 39 1008.1
20260509174717 79 216 9.0 19.0 0.00 0.00 0.00 38 1008.3
20260509173603 78 228 6.0 12.0 0.00 0.00 0.00 39 1008.1
20260509172703 78 211 11.0 18.0 0.00 0.00 0.00 39 1008.2
20260509172014 78 206 12.0 18.0 0.00 0.00 0.00 39 1008.3
20260509171117 79 196 14.0 22.0 0.00 0.00 0.00 38 1008.2
20260509170214 79 220 10.0 20.0 0.00 0.00 0.00 37 1008.2
20260509165403 81 208 16.0 23.0 0.00 0.00 0.00 34 1008.2
20260509164503 81 204 15.0 22.0 0.00 0.00 0.00 35 1008.2
20260509163603 81 214 12.0 21.0 0.00 0.00 0.00 36 1008.0
20260509162703 80 212 12.0 21.0 0.00 0.00 0.00 37 1008.0
20260509162015 80 219 10.0 20.0 0.00 0.00 0.00 37 1008.0
20260509160903 79 225 10.0 18.0 0.00 0.00 0.00 36 1008.0
20260509160003 78 226 10.0 18.0 0.00 0.00 0.00 37 1008.0
20260509155616 78 222 11.0 20.0 0.00 0.00 0.00 37 1008.0
20260509154713 78 226 8.0 18.0 0.00 0.00 0.00 39 1008.0
20260509153603 77 220 12.0 17.0 0.00 0.00 0.00 37 1007.9
20260509152913 76 223 10.0 17.0 0.00 0.00 0.00 39 1007.9
20260509151803 75 241 8.0 17.0 0.00 0.00 0.00 41 1007.9
20260509150903 74 230 10.0 17.0 0.00 0.00 0.00 39 1007.9
20260509150215 74 222 9.0 15.0 0.00 0.00 0.00 43 1007.9
20260509145617 73 224 9.0 17.0 0.00 0.00 0.00 43 1007.9
20260509144503 72 217 9.0 14.0 0.00 0.00 0.00 46 1008.0
20260509143816 71 215 8.0 14.0 0.00 0.00 0.00 48 1008.0
20260509142914 69 205 8.0 12.0 0.00 0.00 0.00 52 1008.0
20260509142016 68 212 7.0 10.0 0.00 0.00 0.00 53 1008.1
20260509141113 66 203 9.0 11.0 0.00 0.00 0.00 56 1008.1
20260509140216 65 199 8.0 11.0 0.00 0.00 0.00 58 1008.1
20260509135612 64 206 9.0 12.0 0.00 0.00 0.00 60 1008.1
20260509134715 63 195 9.0 13.0 0.00 0.00 0.00 62 1008.2
20260509133603 60 187 7.0 12.0 0.00 0.00 0.00 68 1008.2
20260509132703 57 176 8.0 13.0 0.00 0.00 0.00 72 1008.3
20260509132017 56 163 7.0 12.0 0.00 0.00 0.00 76 1008.3
20260509131114 54 157 7.0 11.0 0.00 0.00 0.00 75 1008.2
20260509130003 53 120 2.0 7.0 0.00 0.00 0.00 79 1008.0
20260509125613 53 117 3.0 7.0 0.00 0.00 0.00 81 1007.9
20260509124715 52 134 3.0 7.0 0.00 0.00 0.00 80 1008.1
20260509123603 51 159 4.0 7.0 0.00 0.00 0.00 82 1007.8
20260509122703 50 292 2.0 5.0 0.00 0.00 0.00 84 1007.8
20260509121803 50 309 1.0 3.0 0.00 0.00 0.00 81 1007.7
20260509120904 49 310 0.0 2.0 0.00 0.00 0.00 83 1007.5
20260509120217 47 0 0.0 0.0 0.00 0.00 0.00 84 1007.5
20260509115614 47 267 1.0 5.0 0.00 0.00 0.00 83 1007.5
20260509114503 47 186 3.0 5.0 0.00 0.00 0.00 85 1007.5
20260509113813 46 186 3.0 5.0 0.00 0.00 0.00 87 1007.3
20260509112916 46 176 4.0 7.0 0.00 0.00 0.00 88 1007.4
20260509112013 46 158 6.0 11.0 0.00 0.00 0.00 88 1007.3
20260509111115 45 160 6.0 11.0 0.00 0.00 0.00 88 1007.4
20260509110213 45 156 4.0 9.0 0.00 0.00 0.00 86 1007.3
20260509105403 47 157 1.0 5.0 0.00 0.00 0.00 86 1007.2
20260509104503 47 157 2.0 5.0 0.00 0.00 0.00 87 1007.1
20260509103603 47 157 3.0 5.0 0.00 0.00 0.00 86 1007.1
20260509102916 47 157 3.0 5.0 0.00 0.00 0.00 87 1007.1
20260509102014 46 157 2.0 3.0 0.00 0.00 0.00 86 1007.3
20260509100903 46 157 2.0 5.0 0.00 0.00 0.00 85 1007.2
20260509100213 46 157 3.0 5.0 0.00 0.00 0.00 84 1007.3
20260509095615 46 157 3.0 7.0 0.00 0.00 0.00 85 1007.3
20260509094717 46 161 4.0 11.0 0.00 0.00 0.00 80 1007.3
20260509093815 48 317 3.0 5.0 0.00 0.00 0.00 81 1007.3
20260509092917 49 305 3.0 5.0 0.00 0.00 0.00 80 1007.2
20260509092014 49 302 2.0 3.0 0.00 0.00 0.00 79 1007.2
20260509090903 50 301 2.0 4.0 0.00 0.00 0.00 81 1007.3
20260509090003 50 301 2.0 4.0 0.00 0.00 0.00 80 1007.4
20260509085615 50 300 1.0 3.0 0.00 0.00 0.00 82 1007.4
20260509084503 49 298 1.0 5.0 0.00 0.00 0.00 83 1007.5
20260509083603 48 297 1.0 4.0 0.00 0.00 0.00 87 1007.4
20260509082912 47 288 2.0 6.0 0.00 0.00 0.00 86 1007.4
20260509081803 46 268 3.0 6.0 0.00 0.00 0.00 84 1007.7
20260509080903 47 203 2.0 4.0 0.00 0.00 0.00 83 1007.5
20260509080215 47 192 1.0 4.0 0.00 0.00 0.00 80 1007.5
20260509075616 49 170 1.0 4.0 0.00 0.00 0.00 77 1007.4
20260509074503 51 161 3.0 5.0 0.00 0.00 0.00 79 1007.3
20260509073603 51 161 1.0 2.0 0.00 0.00 0.00 76 1007.3
20260509072704 53 161 0.0 2.0 0.00 0.00 0.00 75 1007.3
20260509071803 54 161 0.0 1.0 0.00 0.00 0.00 74 1007.3